This is the latest recevied weather packets stored in our database for station/object F5SAW-10. If no packets are shown the sender has not sent any weather packets the latest 10 day(s).
| Time | Temp. | Humidity | Pressure | Rain* | Wind** | Luminosity | Snow |
|---|---|---|---|---|---|---|---|
| 1777972581 | 25.56° C | 38% | 978.2 hPa | - | - | - | - |
| 1777971681 | 25.56° C | 39% | 978.2 hPa | - | - | - | - |
| 1777970781 | 25.56° C | 39% | 978.2 hPa | - | - | - | - |
| 1777969881 | 25.56° C | 39% | 978.3 hPa | - | - | - | - |
| 1777968980 | 25.56° C | 39% | 978.3 hPa | - | - | - | - |
| 1777968080 | 25.56° C | 40% | 978.4 hPa | - | - | - | - |
| 1777967180 | 25.56° C | 40% | 978.3 hPa | - | - | - | - |
| 1777966280 | 25.56° C | 39% | 978.2 hPa | - | - | - | - |
| 1777965380 | 25.56° C | 40% | 978 hPa | - | - | - | - |
| 1777964479 | 25.56° C | 40% | 978.1 hPa | - | - | - | - |
| 1777963579 | 25.56° C | 41% | 978.1 hPa | - | - | - | - |
| 1777962679 | 25° C | 42% | 978.1 hPa | - | - | - | - |
| 1777961779 | 23.89° C | 48% | 978 hPa | - | - | - | - |
| 1777960878 | 18.89° C | 57% | 978.1 hPa | - | - | - | - |
| 1777920382 | 27.22° C | 40% | 978.6 hPa | - | - | - | - |
| 1777919482 | 27.22° C | 40% | 978.5 hPa | - | - | - | - |
| 1777918582 | 27.22° C | 40% | 978.6 hPa | - | - | - | - |
| 1777917682 | 27.22° C | 40% | 978.4 hPa | - | - | - | - |
| 1777916782 | 27.22° C | 39% | 978.3 hPa | - | - | - | - |
| 1777915882 | 27.22° C | 40% | 978.1 hPa | - | - | - | - |
| 1777914982 | 27.22° C | 39% | 978.1 hPa | - | - | - | - |
| 1777914082 | 27.22° C | 40% | 978.6 hPa | - | - | - | - |
| 1777913182 | 27.22° C | 40% | 978.7 hPa | - | - | - | - |
| 1777912282 | 27.22° C | 40% | 978.9 hPa | - | - | - | - |
| 1777911381 | 27.22° C | 40% | 978.9 hPa | - | - | - | - |
* Rain since midnight (hover to see other rain measurements)
** Current wind speed in m/s (hover to see current wind gust speed)